Flag for Australia Weather past 2 weeks in Alice Springs, Northern Territory, Australia

Now
68 °F

Sunny.


Feels Like: 68 °F
Forecast: 45 / 79 °F
Wind: 14 mph from South

Location: Alice Springs Aerodrome

Current Time: Sep 24, 2014 at 12:24:39 PM

Latest Report: Sep 24, 2014 at 11:30 AM


Visibility: 10 mi

Pressure: 30.15 "Hg

Humidity: 33%

Dew point: 37 °F

Location of Alice SpringsLocation

Historic Weather in Alice Springs — Graph

°F

Alice Springs temperature yesterday

Maximum temperature yesterday: 90 °F (at 2:30 PM)
Minimum temperature yesterday: 50 °F (at 2:00 AM)
Average temperature yesterday: 73 °F

Past Weeks' High & Low Weather Summary

 TemperatureHumidityPressure
High93 °F (Sep 9, 3:00 PM)67% (Sep 21, 4:30 AM)30.30 "Hg (Sep 21, 4:30 AM)
Low41 °F (Sep 22, 6:30 AM)2% (Sep 22, 5:30 PM)29.83 "Hg (Sep 23, 4:30 PM)
Average69 °F22%30.09 "Hg
* Reported Sep 9 10:30 AM — Sep 24 11:00 AM, Alice Springs, Weather by CustomWeather, © 2014

Note: Actual official high and low records may vary slightly from our data, if they occured in-between our weather recording intervals... More about our weather records

Advertising

Alice Springs weather history for previous 24 hours

 ConditionsComfort  
Time TempWeatherWind HumidityBarometerVisibility
11:00 AM
Sep 24
66 °FSunny.13 mph35%30.15 "Hg10 mi
10:30 AM64 °FSunny.15 mph37%30.18 "Hg10 mi
10:00 AM64 °FSunny.17 mph34%30.18 "Hg10 mi
9:30 AM63 °FSunny.17 mph37%30.18 "Hg10 mi
9:00 AM63 °FSunny.14 mph37%30.15 "Hg10 mi
8:30 AM61 °FSunny.15 mph36%30.15 "Hg10 mi
8:00 AM59 °FSunny.10 mph42%30.15 "Hg10 mi
7:30 AM54 °FSunny.2 mph51%30.12 "Hg10 mi
7:00 AM48 °FSunny.No wind58%30.12 "Hg10 mi
6:30 AM48 °FSunny.5 mph58%30.09 "Hg10 mi
6:00 AM50 °FSunny.3 mph54%30.09 "Hg10 mi
5:30 AM50 °FClear.6 mph54%30.09 "HgN/A
5:00 AM52 °FClear.6 mph54%30.07 "HgN/A
4:30 AM54 °FClear.8 mph47%30.07 "HgN/A
4:00 AM55 °FClear.8 mph44%30.07 "HgN/A
3:30 AM55 °FClear.8 mph41%30.07 "HgN/A
3:00 AM55 °FClear.7 mph41%30.04 "HgN/A
2:30 AM57 °FClear.8 mph36%30.04 "HgN/A
2:00 AM59 °FClear.8 mph31%30.04 "HgN/A
1:30 AM61 °FClear.10 mph27%30.04 "HgN/A
1:00 AM63 °FClear.10 mph25%30.04 "HgN/A
12:30 AM63 °FClear.9 mph24%30.04 "HgN/A
12:00 AM61 °FClear.8 mph25%30.04 "HgN/A
11:30 PM
Sep 23
64 °FClear.8 mph18%30.04 "HgN/A
10:30 PM68 °FClear.8 mph14%30.01 "HgN/A
10:00 PM68 °FClear.8 mph16%30.01 "HgN/A
9:30 PM72 °FClear.13 mph12%29.98 "HgN/A
9:00 PM72 °FClear.13 mph14%29.98 "HgN/A
8:30 PM75 °FClear.12 mph13%29.95 "HgN/A
7:30 PM77 °FClear.15 mph8%29.92 "HgN/A
7:00 PM81 °FClear.13 mph9%29.89 "HgN/A
6:30 PM82 °FClear.18 mph7%29.86 "HgN/A
6:21 PM84 °FClear.18 mph6%29.86 "HgN/A
6:00 PM84 °FClear.24 mph6%29.86 "HgN/A
5:30 PM86 °FSunny.18 mph5%29.83 "HgN/A
5:00 PM88 °FSunny.18 mph4%29.83 "Hg10 mi
4:30 PM88 °FSunny.17 mph4%29.83 "Hg10 mi
4:00 PM88 °FSunny.23 mph4%29.86 "Hg10 mi
3:30 PM90 °FSunny.22 mph3%29.86 "Hg10 mi
2:30 PM90 °FSunny.20 mph4%29.86 "Hg10 mi
2:00 PM86 °FSunny.18 mph5%29.89 "Hg10 mi
1:33 PM86 °FSunny.18 mph3%29.89 "Hg10 mi
1:00 PM86 °FSunny.18 mph5%29.89 "Hg10 mi
12:30 PM86 °FSunny.17 mph4%29.92 "Hg10 mi
12:00 PM82 °FSunny.18 mph6%29.92 "Hg10 mi
Weather by CustomWeather, © 2014

See weather overviewHow to use our weather pages